Regional Weather Roundup
Issued by NWS

Home | Current Version | Previous Version | Graphics & Text | Print | Product List | Glossary On
Versions: 1 2 3 4 5 6 7 8 9 10 11 12 13 14 15 16 17 18 19 20 21 22 23 24 25 26 27 28 29 30 31 32 33 34 35 36 37 38 39 40 41 42 43 44 45 46 47 48 49 50
000
ASUS43 KLSX 171107
RWRMO

WEATHER SUMMARY FOR MISSOURI
NATIONAL WEATHER SERVICE SPRINGFIELD MO
600 AM CDT WED SEP 17 2014

NOTE: "FAIR" INDICATES FEW OR NO CLOUDS BELOW 12,000 FEET WITH NO
       SIGNIFICANT WEATHER AND/OR OBSTRUCTIONS TO VISIBILITY.
       CURRENT SKY AND/OR WEATHER CONDITIONS ARE NOT AVAILABLE FOR
       CHILLICOTHE AND FARMINGTON.

MOZ001>031-035>038-043-044-053-054-171200-
...NORTHERN AND WESTERN MISSOURI...

CITY           SKY/WX    TMP DP  RH WIND       PRES   REMARKS
KANSAS CTY INT LGT RAIN  62  61  96 SE9       29.92F
KANSAS C DTWN  TSTM      63  61  93 SE5       29.91F FOG
LEE`S SUMMIT   CLOUDY    62  61  96 E5        29.92F
ST JOSEPH      CLOUDY    63  58  83 SE5       29.92F
CHILLICOTHE      N/A     60  56  86 CALM      29.96F
KIRKSVILLE     CLOUDY    55  53  93 SE6       29.99F

$$
MOZ066>068-077>081-088>096-101>105-171200-
...SOUTHWEST MISSOURI...

CITY           SKY/WX    TMP DP  RH WIND       PRES   REMARKS
SPRINGFIELD    FOG       65  64  97 S10       29.95F VSB 1
JOPLIN         MOCLDY    69  67  93 S14       29.92F

$$
MOZ032>034-039>042-045>050-055>058-069>072-171200-
...CENTRAL MISSOURI...

CITY           SKY/WX    TMP DP  RH WIND       PRES   REMARKS
COLUMBIA         N/A    N/A N/A N/A MISG      29.96F
JEFFERSON CITY CLOUDY    58  55  90 SE6       29.97F
ROLLA          CLOUDY    56  53  90 SE12      29.96F
SEDALIA        CLOUDY    63  60  90 S7        29.96R FOG
WHITEMAN AFB   CLOUDY    62  60  95 S8        29.94R
OSAGE BEACH    CLOUDY    61  57  88 SE6       29.96F

$$
MOZ051-052-059>065-171200-
...EAST CENTRAL MISSOURI...

CITY           SKY/WX    TMP DP  RH WIND       PRES   REMARKS
ST LOUIS INTL  PTCLDY    54  50  86 SE3       30.03F
SPIRIT OF STL  MOCLDY    51  50  96 SE3       30.01F
ST CHARLES     PTCLDY    49  48  97 E8        30.01F FOG

$$
MOZ072>076-082>087-097>100-106>115-171200-
...SOUTH CENTRAL AND SOUTHEAST MISSOURI...

CITY           SKY/WX    TMP DP  RH WIND       PRES   REMARKS
CAPE GIRARDEAU FOG       49  47  93 CALM      30.05F VSB 1/4
FARMINGTON     PTCLDY    48  48 100 NE3       30.04F
POPLAR BLUFF   CLOUDY    55  51  86 N3        30.03F
WEST PLAINS    CLOUDY    63  58  83 SE7       30.03S

$$



USA.gov is the U.S. government's official web portal to all federal, state and local government web resources and services.